Location: Izdebno
(52.6670°N, 16.2170°E)
Time: 03:15:33
(UTC+02:00)

Transit 4A - Pass Details

Date: 01 March 2024
Orbit: 871 x 972 km, 66.8° (Epoch: 22 April)

Event Time Altitude Azimuth Distance (km) Brightness Sun altitude
Rises 09:17:47 0° 318° (NW) 3,501 10.3 20.0°
Reaches altitude 10° 09:20:26 10° 311° (NW) 2,547 9.7 20.3°
Maximum altitude 09:25:49 39° 244° (WSW) 1,291 8.8 20.9°
Drops below altitude 10° 09:31:08 10° 178° (S) 2,514 11.1 21.4°
Sets 09:33:44 0° 170° (S) 3,449 11.8 21.7°
